Погода в Денизли

Турция     37°46′47″N   29°05′48″E
темп.,
°C
ветер,
м/с
пор.,
м/с
влажн.,
%
обл.,
%
осадки,
мм/ч
давл.,
гПа
погр.,
м
15 мая, сб
сб1500:00+14ю22430 0.0 101614
03:00+11вюв11572 0.0 101511
06:00+10юв11562 0.0 101410
09:00+19с11280 0.0 1014493
12:00+24сз24180 0.0 10121436
15:00+27зюз3515100 0.0 10092545
18:00+24зюз772079 0.0 10082099
21:00+18ююз3332100 0.0 101041
16 мая, вс
вс1600:00+16ююз3233100 0.0 101027
03:00+13юз21372 0.0 100811
06:00+12юв114484 0.0 100812
09:00+17ссз11363 0.0 1008676
12:00+22зсз352742 0.0 10072840
15:00+23з672356 0.0 10052994
18:00+21зсз883621 0.0 10062125
21:00+15зсз225951 0.1 100841
17 мая, пн
пн1700:00+15св116387 0.1 101074
03:00+12с117711 0.2 101014
06:00+10сз00863 0.0 101110
09:00+16св216211 0.0 1012615
12:00+20ссв22402 0.0 10121201
15:00+24с33314 0.0 10101528
18:00+24ссз23285 0.0 10101456
21:00+17зюз11453 0.0 101212
18 мая, вт
вт1800:00+15вюв01530 0.0 101311
03:00+13ююв11640 0.0 101311
06:00+12юв11700 0.0 101411
09:00+20с11380 0.0 1014497
12:00+25ссз12270 0.0 10131306
15:00+29сз33210 0.0 10122227
18:00+28зсз44223 0.0 10111480
21:00+20юз33394 0.0 101317
19 мая, ср
ср1900:00+17ю22503 0.0 101412
03:00+15ююв11592 0.0 101311
06:00+14ю11640 0.0 101311
09:00+22зсз01400 0.0 1013489
12:00+28зсз24220 0.0 10121818
15:00+31з45180 0.0 10102522
18:00+29з882119 0.0 10092335
21:00+21ююз43380 0.0 101233